D0A00670 Weather Reports


Display with metric or nautical units.
time (UTC)temp
F
wind
direction
speed
MPH
gust
MPH
rain 1hr
in
rain 24hr
in
rain mn
in
humidity
%
barometer
mb
20260506023100 54 144 0.0 4.0 0.00 0.21 0.00 95 1005.7
20260506021559 54 178 0.0 0.0 0.00 0.21 0.00 95 1005.7
20260506020058 54 137 0.0 0.0 0.00 0.21 0.00 95 1005.7
20260506014555 54 197 0.0 0.0 0.00 0.21 0.00 95 1005.9
20260506013107 54 219 0.0 0.0 0.00 0.21 0.00 95 1006.0
20260506011606 53 219 0.0 0.0 0.00 0.21 0.00 95 1006.0
20260506010056 54 197 0.0 0.0 0.00 0.21 0.00 94 1006.0
20260506004549 54 178 0.0 0.0 0.00 0.21 0.00 94 1006.3
20260506003048 54 190 1.0 4.0 0.00 0.21 0.00 94 1006.2
20260506001547 55 181 0.0 3.0 0.00 0.21 0.00 94 1006.2
20260506000047 55 209 0.0 0.0 0.00 0.21 0.00 94 1006.3
20260505234543 55 188 0.0 2.0 0.00 0.21 0.00 94 1006.4
20260505233042 55 220 0.0 6.0 0.00 0.21 0.00 94 1006.5
20260505231541 56 194 1.0 5.0 0.00 0.21 0.00 94 1006.5
20260505230051 56 199 0.0 6.0 0.00 0.21 0.00 94 1006.5
20260505224536 57 209 0.0 5.0 0.00 0.21 0.00 94 1006.5
20260505223040 57 163 0.0 5.0 0.01 0.21 0.00 94 1006.5
20260505221535 57 174 0.0 5.0 0.02 0.21 0.00 94 1006.5
20260505220030 57 182 1.0 4.0 0.03 0.21 0.00 93 1006.5
20260505214529 57 172 2.0 8.0 0.07 0.21 0.21 93 1006.6
20260505213040 58 190 0.0 0.0 0.06 0.20 0.20 93 1006.6
20260505211527 58 212 0.0 4.0 0.05 0.19 0.19 92 1006.7
20260505210028 59 144 0.0 3.0 0.03 0.17 0.17 92 1006.7
20260505204527 59 205 0.0 2.0 0.00 0.14 0.14 92 1006.6
20260505203040 59 208 0.0 0.0 0.00 0.14 0.14 91 1006.6
20260505201527 59 208 0.0 0.0 0.00 0.14 0.14 91 1006.6
20260505200033 59 208 0.0 0.0 0.00 0.14 0.14 91 1006.6
20260505194524 59 208 0.0 0.0 0.00 0.14 0.14 90 1006.7
20260505193024 59 208 0.0 0.0 0.00 0.14 0.14 90 1006.6
20260505191523 59 225 0.0 0.0 0.00 0.14 0.14 90 1006.4
20260505190027 60 225 0.0 0.0 0.00 0.14 0.14 89 1006.3
20260505184525 60 225 0.0 0.0 0.00 0.14 0.14 89 1006.4
20260505183022 60 225 0.0 0.0 0.00 0.14 0.14 88 1006.3
20260505181521 60 225 0.0 0.0 0.00 0.14 0.14 87 1006.4
20260505180021 60 242 0.0 0.0 0.00 0.14 0.14 86 1006.3
20260505174521 60 244 0.0 0.0 0.00 0.14 0.14 86 1006.3
20260505173036 60 230 0.0 0.0 0.00 0.14 0.14 86 1006.4
20260505171519 60 245 0.0 3.0 0.00 0.14 0.14 88 1006.5
20260505170023 60 205 0.0 3.0 0.00 0.14 0.14 88 1006.5
20260505164537 60 229 0.0 3.0 0.00 0.14 0.14 89 1006.5
20260505163017 60 215 0.0 3.0 0.00 0.14 0.14 89 1006.7
20260505161515 60 224 1.0 3.0 0.00 0.14 0.14 89 1006.7
20260505153012 60 261 1.0 3.0 0.01 0.14 0.14 90 1007.0
20260505151509 60 232 1.0 4.0 0.02 0.14 0.14 90 1007.0
20260505124600 68 278 1.0 4.0 0.00 0.00 0.00 61 1007.2
20260505123106 67 300 1.0 6.0 0.00 0.00 0.00 63 1007.2
20260505121558 67 300 4.0 8.0 0.00 0.00 0.00 62 1007.2
20260505120055 67 306 3.0 8.0 0.00 0.00 0.00 63 1007.3
20260505114553 67 279 3.0 8.0 0.00 0.00 0.00 64 1007.4
20260505113058 67 244 4.0 8.0 0.00 0.00 0.00 64 1007.5
20260505111556 67 194 1.0 5.0 0.00 0.00 0.00 64 1007.6
20260505101545 67 136 1.0 6.0 0.00 0.00 0.00 62 1007.9
20260505100050 67 128 0.0 5.0 0.00 0.00 0.00 62 1007.9
20260505094544 67 122 2.0 6.0 0.00 0.00 0.00 61 1007.9
20260505093044 68 70 1.0 5.0 0.00 0.00 0.00 60 1008.1
20260505091552 67 292 0.0 4.0 0.00 0.00 0.00 65 1008.2
20260505090051 68 294 0.0 0.0 0.00 0.00 0.00 65 1008.4
20260505084538 68 306 0.0 3.0 0.00 0.00 0.00 66 1008.4
20260505083042 68 256 0.0 4.0 0.00 0.00 0.00 65 1008.5
20260505081549 68 40 0.0 3.0 0.00 0.00 0.00 65 1008.6
20260505080038 67 6 0.0 3.0 0.00 0.00 0.00 67 1008.7
20260505074526 66 65 0.0 3.0 0.00 0.00 0.00 69 1008.8
20260505073024 66 75 1.0 3.0 0.00 0.00 0.00 69 1008.9
20260505071525 65 34 0.0 3.0 0.00 0.00 0.00 72 1009.0
20260505070018 63 30 0.0 3.0 0.00 0.00 0.00 75 1009.0
20260505064513 62 354 0.0 0.0 0.00 0.00 0.00 79 1009.1
20260505063009 61 354 0.0 3.0 0.00 0.00 0.00 80 1009.3
20260505061522 60 317 0.0 3.0 0.00 0.00 0.00 81 1009.4
20260505060007 60 306 0.0 2.0 0.00 0.00 0.00 82 1009.4
20260505054511 58 273 0.0 0.0 0.00 0.00 0.00 85 1009.3
20260505053002 57 273 0.0 0.0 0.00 0.00 0.00 85 1009.3
20260505051559 57 294 0.0 0.0 0.00 0.00 0.00 85 1009.1
20260505041549 57 237 0.0 0.0 0.00 0.00 0.00 84 1009.3
20260505040047 57 234 0.0 0.0 0.00 0.00 0.00 84 1009.4
20260505034546 58 296 0.0 0.0 0.00 0.00 0.00 83 1009.3
20260505033051 58 330 0.0 3.0 0.00 0.00 0.00 83 1009.3
20260505031542 58 311 0.0 0.0 0.00 0.00 0.00 83 1009.6
20260505030043 58 290 0.0 0.0 0.00 0.00 0.00 83 1009.7
20260505024602 58 290 0.0 0.0 0.00 0.00 0.00 83 1009.9